[Date Prev][Date Next][Thread Prev][Thread Next] - [Date Index][Thread Index][Author Index]

2 Line ISS Keps 1-25



ISS
1 25544U 98067A   04025.19033565  .00031378  00000-0  30003-3 0   681
2 25544  51.6305 338.6550 0007829  86.0378 111.1976 15.66387401295722


----
Via the sarex mailing list at AMSAT.ORG courtesy of AMSAT-NA.
To unsubscribe, send "unsubscribe sarex" to Majordomo@amsat.org



AMSAT Top AMSAT Home